Weather History for KDFI - January, 2012

Change the Weather History Date:

Wednesday, January 25, 2012

  Actual Average Record
Temperature  
Mean Temperature 28 °F -  
Max Temperature 33 °F 33 °F 62 °F (1944)
Min Temperature 23 °F 16 °F -15 °F (1963)
Degree Days  
Heating Degree Days 37    
Moisture  
Dew Point 25 °F    
Average Humidity 83    
Maximum Humidity 93    
Minimum Humidity 70    
Precipitation  
Precipitation 0.00 in - - ()
Sea Level Pressure  
Sea Level Pressure 30.29 in    
Wind  
Wind Speed 1 mph (ENE)    
Max Wind Speed 7 mph    
Max Gust Speed -    
Visibility 5 miles    
Events Snow    
Averages and records for this station are not official NWS values.
T = Trace of Precipitation, MM = Missing Value Source: NWS Daily Summary

Daily Weather History Graph

Daily Weather History Graph

Search for Another Location

Airport or City:

Trip Planner

Search our weather history database for the weather conditions in past years. The results will help you decide how hot, cold, wet, or windy it might be!

Date:

Astronomy

Jan. 25, 2012 Rise Set
Actual Time 7:55 AM EST 5:44 PM EST
Civil Twilight 7:25 AM EST 6:14 PM EST
Nautical Twilight 6:52 AM EST 6:48 PM EST
Astronomical Twilight 6:19 AM EST 7:20 PM EST
Moon 8:52 AM EST (1/25) 8:39 PM EST (1/25)
Length of Visible Light 10h 48m
Length of Day
9h 49m
Waxing Crescent, 6% of the Moon is Illuminated
Jan 25
Waxing Crescent
Jan 30
First Quarter
Feb 7
Full
Feb 14
Last Quarter
Feb 21
New

Hourly Weather History & Observations

Time (EST) Temp. Windchill Dew Point Humidity Pressure Visibility Wind Dir Wind Speed Gust Speed Precip Events Conditions
1:53 AM 26.1 °F - 21.9 °F 84% 30.40 in 5.0 mi Calm Calm - N/A   Clear
2:53 AM 24.1 °F - 19.9 °F 84% 30.40 in 5.0 mi Calm Calm - N/A   Clear
3:53 AM 23.0 °F - 19.0 °F 85% 30.38 in 4.0 mi Calm Calm - N/A   Clear
4:09 AM 24.8 °F - 19.4 °F 80% 30.35 in 4.0 mi Calm Calm - N/A   Mostly Cloudy
4:53 AM 26.1 °F - 23.0 °F 88% 30.37 in 4.0 mi Calm Calm - N/A   Overcast
6:53 AM 28.0 °F - 24.1 °F 85% 30.39 in 5.0 mi Calm Calm - N/A   Overcast
7:42 AM 26.6 °F - 23.0 °F 86% 30.34 in 4.0 mi Calm Calm - N/A   Scattered Clouds
8:24 AM 24.8 °F - 21.2 °F 86% 30.34 in 2.5 mi Calm Calm - N/A   Partly Cloudy
8:33 AM 26.6 °F - 23.0 °F 86% 30.34 in 3.0 mi Calm Calm - N/A   Partly Cloudy
8:53 AM 27.0 °F - 24.1 °F 89% 30.38 in 3.0 mi Calm Calm - N/A   Mostly Cloudy
9:53 AM 30.0 °F 23.2 °F 25.0 °F 82% 30.38 in 8.0 mi East 6.9 mph - N/A   Overcast
10:53 AM 30.9 °F 26.2 °F 25.0 °F 79% 30.40 in 8.0 mi East 4.6 mph - N/A   Overcast
11:34 AM 30.2 °F - 24.8 °F 80% 30.37 in 8.0 mi Calm Calm - N/A   Overcast
11:53 AM 30.9 °F - 24.1 °F 76% 30.38 in 7.0 mi Calm Calm - N/A   Overcast
12:53 PM 32.0 °F - 25.0 °F 75% 30.32 in 9.0 mi Calm Calm - N/A   Mostly Cloudy
1:25 PM 32.0 °F 28.7 °F 24.8 °F 75% 30.28 in 7.0 mi ENE 3.5 mph - N/A   Mostly Cloudy
1:53 PM 32.0 °F 28.7 °F 25.0 °F 75% 30.31 in 7.0 mi NE 3.5 mph - N/A   Overcast
2:06 PM 32.0 °F - 24.8 °F 75% 30.29 in 8.0 mi Calm Calm - N/A   Overcast
2:30 PM 32.0 °F - 24.8 °F 75% 30.29 in 8.0 mi Calm Calm - N/A   Mostly Cloudy
2:53 PM 32.0 °F 28.7 °F 25.0 °F 75% 30.30 in 8.0 mi NE 3.5 mph - N/A   Mostly Cloudy
3:34 PM 33.8 °F - 24.8 °F 70% 30.27 in 8.0 mi Calm Calm - N/A   Overcast
3:53 PM 32.0 °F 27.5 °F 25.0 °F 75% 30.28 in 8.0 mi East 4.6 mph - N/A   Overcast
4:19 PM 32.0 °F - 24.8 °F 75% 30.26 in 6.0 mi Calm Calm - 0.00 in   Haze
4:51 PM 32.0 °F - 24.8 °F 75% 30.24 in 6.0 mi Calm Calm - 0.00 in   Haze
4:53 PM 32.0 °F 28.7 °F 25.0 °F 75% 30.27 in 6.0 mi ENE 3.5 mph - 0.00 in   Haze
5:53 PM 32.0 °F - 26.1 °F 79% 30.26 in 8.0 mi Calm Calm - N/A   Overcast
6:53 PM 32.0 °F - 27.0 °F 82% 30.27 in 5.0 mi Calm Calm - N/A   Haze
7:07 PM 32.0 °F - 28.4 °F 87% 30.24 in 5.0 mi Calm Calm - 0.00 in   Overcast
7:17 PM 32.0 °F 28.7 °F 28.4 °F 87% 30.24 in 5.0 mi NE 3.5 mph - 0.00 in   Overcast
7:45 PM 32.0 °F 27.5 °F 28.4 °F 87% 30.22 in 2.5 mi East 4.6 mph - 0.00 in Snow Light Snow
7:53 PM 30.9 °F 27.5 °F 28.0 °F 89% 30.24 in 2.5 mi ENE 3.5 mph - 0.00 in Snow Light Snow
8:04 PM 30.2 °F 26.7 °F 28.4 °F 93% 30.21 in 4.0 mi East 3.5 mph - 0.00 in Snow Light Snow
8:35 PM 30.2 °F 25.4 °F 28.4 °F 93% 30.20 in 5.0 mi ENE 4.6 mph - 0.00 in   Overcast
8:53 PM 30.9 °F 26.2 °F 28.0 °F 89% 30.22 in 5.0 mi ENE 4.6 mph - 0.00 in   Overcast
9:13 PM 30.2 °F 23.4 °F 28.4 °F 93% 30.17 in 4.0 mi East 6.9 mph - 0.00 in   Overcast
9:22 PM 30.2 °F 23.4 °F 28.4 °F 93% 30.17 in 4.0 mi ESE 6.9 mph - 0.00 in   Overcast
9:53 PM 30.9 °F 24.3 °F 28.0 °F 89% 30.17 in 4.0 mi ESE 6.9 mph - 0.00 in   Overcast
10:53 PM 32.0 °F 27.5 °F 28.9 °F 88% 30.17 in 3.0 mi ESE 4.6 mph - N/A   Overcast
11:53 PM 32.0 °F - 28.9 °F 88% 30.18 in 3.0 mi Calm Calm - N/A   Overcast